DELTA 1 DEB, 29187

Orbit data source: Space-Track

DELTA 1 DEB, 29187 is space debris in LEO originally from a launch on Thu, 11 Jan 1968 UTC launched from the Air Force Western Test Range (AFWTR). Debris objects in space refer to the collection of defunct objects orbiting the Earth. Examples of debris include non-operational satellites, rocket bodies, and fragments generated from explosions, collisions, or faulty payload assembly.

Loading next visibility...
Identifier
29187, 1968-002L
Orbit
LEO
Last TLE update
1 week ago
Origin
Manufacturer
Unknown
Mission
Spacecraft
Bus & Motor
Unknown
Mass
Unknown
Launch date (UTC)
1968-01-11 (57 years ago)
Launch vehicle
Unknown
Launch site
Air Force Western Test Range (AFWTR)
Object type
Payload
Rocket body
Debris
Shape & HBR
Unknown
Radar Cross Section
Small (<0.1 m²)

Expand to show TLE details & history

TLE from 1 week ago
0 DELTA 1 DEB
1 29187U 68002L   25183.71892472  .00000128  00000-0  63199-3 0  9994
2 29187 105.8094 162.0138 0296211  79.0967  96.4608 12.91152607557000
Epoch: 2025-07-02T17:15Z
TLE epoch observation values (Epoch: 2025-07-02T17:15:15.095Z)
Latitude
0.94679°
Longitude
162.47168°
Altitude
1,331.477 km
Speed
7.177 km/s
True Right ascension
22h 49m 07s
True Declination
0° 56' 30"
Sunlit
Object was in daylight at epoch
Visualization orbit readout
Latitude
-73.39489°
Longitude
103.67236°
Altitude
1,536.712 km
Speed
6.998 km/s
Apparent Right ascension
12h 04m 03s
Apparent Declination
-71° 33' 15"
Sunlit
Object is in full shadow
Visualization observer readout
Local Sidereal Time
22:16:34
Azimuth
194.665° SSW
Elevation
-55.607°
Doppler factor
1
Orbital elements
Apogee altitude
1,522.003 km
Perigee altitude
1,067.446 km
Semi-major axis
7,672.862 km
Eccentricity
0.02962
Inclination
105.8094°
RAAN
162.0138°
Arg. of periapsis
79.0967°
True anomaly
Unknown
Mean anomaly
96.4608°
Eccentric anomaly
Unknown
Mean motion
3.22929 °/min
Orbital period
111.48 mins
BSTAR
0.00063199
Loading maneuver chart data...
Loading SW <> Apogee altitude chart data...
Loading historical data...
Loading historical data...
Loading historical data...
Loading historical data...
Loading historical data...
Loading historical data...
Loading historical data...

DELTA 1 DEB Visibility forecast

Observer location: undefined°, undefined°

Span
Click to sort rows by Start time (UTC) header in descending order
Start Az.
Max El. time (UTC)
Max El. Az.
Max El.
End time (UTC)
End Az.
12 mins2025-07-11 11:05:46.445Z46.08° ENE2025-07-11 11:10:46.445Z100.192° ESE29.744°2025-07-11 11:17:46.445Z168.668° S
12 mins2025-07-11 12:54:46.445Z7.584° NNE2025-07-11 12:59:46.445Z310.104° NW36.116°2025-07-11 13:06:46.445Z230.921° WSW
10 mins2025-07-11 21:46:46.445Z130.842° SE2025-07-11 21:51:46.445Z54.653° ENE38.551°2025-07-11 21:56:46.445Z349.427° N
9 mins2025-07-11 23:36:46.445Z210.045° SW2025-07-11 23:40:46.445Z254.691° W23.646°2025-07-11 23:45:46.445Z309.468° NW
|